Wind_Speed
23 21 20 18 17 16 16 17 18 17 17 16 13 9 7 6 5 5 5 5 5 4 4 4 5 5 4 4 5 4 4 4 4 4 4 4 5 5 6 6 7 8 9 9 10 10 10 9 8
24 23 22 20 18 16 17 19 20 20 19 17 14 10 8 6 6 6 5 5 5 5 5 6 6 6 6 6 6 5 5 6 6 6 6 6 6 7 7 7 7 8 8 9 9 9 9 8 7
25 24 22 20 17 16 19 21 22 21 20 19 15 12 9 7 7 6 6 6 6 6 6 6 7 7 7 7 7 8 8 8 8 8 8 8 8 8 8 8 8 8 9 8 8 9 9 8 7
25 24 22 20 16 18 22 23 24 23 22 21 18 14 11 9 7 6 7 8 7 7 7 8 8 8 8 8 9 9 9 10 10 10 10 10 9 10 9 9 9 9 9 9 8 8 8 8 7
25 24 22 19 18 22 24 26 27 26 24 22 20 17 13 10 8 8 8 9 9 9 9 9 9 9 10 10 11 11 11 12 12 12 12 11 11 11 11 11 10 10 10 10 9 9 8 8 8
24 23 21 19 21 25 28 29 28 28 26 24 21 18 16 12 11 10 10 11 11 10 10 10 10 11 11 11 12 13 13 13 13 13 13 13 13 13 13 12 12 12 12 11 10 10 9 9 8
23 22 20 20 24 28 30 30 29 28 27 24 21 19 17 14 14 14 14 13 13 13 12 11 11 12 13 13 13 14 14 15 15 15 15 15 15 15 15 14 14 14 14 13 12 11 10 10 9
22 21 20 21 25 30 32 32 31 30 27 25 23 20 18 17 16 16 16 16 16 16 15 14 13 13 15 15 15 16 16 16 16 16 16 17 17 16 16 16 16 16 15 15 14 13 12 11 11
20 19 19 22 26 31 33 33 33 32 30 28 26 23 20 19 19 19 19 19 19 18 17 17 16 16 16 16 17 17 17 17 17 18 18 19 19 19 18 18 18 17 17 16 16 15 14 13 12
18 18 20 24 28 32 34 34 34 33 32 30 27 25 22 21 20 21 22 22 22 21 21 20 19 19 18 18 19 19 18 19 20 20 21 21 22 21 20 20 20 19 18 18 17 17 16 15 14
17 19 23 26 29 32 34 33 33 34 33 31 28 26 24 24 23 24 24 25 25 24 23 22 21 22 21 21 21 21 21 21 21 23 23 23 23 23 23 22 22 21 21 20 20 19 18 17 16
18 20 23 27 29 31 32 32 32 32 32 31 30 28 27 26 26 26 27 27 26 25 24 23 22 22 23 24 23 23 23 23 23 24 24 24 24 25 24 24 23 23 22 22 21 20 19 19 18
18 19 21 24 28 29 30 30 31 30 31 31 30 28 27 28 28 29 28 27 26 25 24 24 23 24 23 24 25 24 25 26 26 25 26 25 26 26 26 25 25 25 24 23 22 22 21 20 20
15 16 18 21 25 28 29 30 30 30 31 31 30 29 29 29 29 29 28 27 26 26 25 25 24 25 25 25 26 27 26 27 27 26 25 26 27 27 27 27 27 27 26 26 25 24 23 22 21
13 14 15 19 24 27 28 29 30 30 30 30 30 29 28 28 27 27 27 27 26 26 26 25 25 25 25 25 25 26 26 26 27 27 26 27 27 28 28 29 29 29 28 28 27 26 25 24 23
13 14 15 19 23 25 26 27 28 28 27 27 26 25 25 25 24 25 25 25 25 25 25 25 26 26 25 25 25 26 28 29 28 28 28 29 29 30 29 29 31 31 30 30 29 28 28 27 25
14 14 16 18 21 24 24 24 24 24 23 23 22 22 21 21 22 23 23 24 24 24 24 25 26 26 26 27 27 27 29 29 29 29 28 28 30 31 30 29 30 31 31 30 30 29 29 28 27
15 15 17 19 20 22 22 21 21 20 19 19 20 20 20 20 21 22 22 23 23 24 24 25 26 26 26 28 29 28 28 28 29 30 30 28 29 30 30 30 31 30 31 31 31 30 29 28 28
16 17 18 19 20 20 19 19 19 19 19 19 19 20 20 21 21 22 23 24 24 24 25 26 26 26 27 28 28 27 27 27 28 29 28 29 28 29 30 30 30 30 29 30 30 30 29 28 28
17 18 18 20 20 19 19 19 19 19 19 19 20 21 22 22 22 23 24 25 25 26 26 26 27 27 27 27 28 27 26 26 26 26 26 26 27 27 29 29 28 28 28 28 28 29 29 28 29
18 18 19 20 21 21 21 21 20 20 20 21 21 23 24 24 25 25 26 27 27 27 27 27 27 27 27 27 27 27 27 26 25 25 25 25 25 27 27 27 28 28 27 26 26 27 29 28 28
18 19 20 21 21 20 21 20 19 20 20 21 23 24 25 26 27 28 29 29 28 27 28 28 27 26 26 26 27 27 26 26 27 26 25 25 25 25 26 26 25 26 27 26 25 26 26 27 27
18 18 19 19 20 20 21 21 20 20 21 22 23 24 25 26 27 27 27 27 27 27 27 27 26 26 25 25 25 25 25 25 26 26 25 25 25 24 24 24 23 23 24 25 25 25 25 26 26
18 19 19 19 19 19 19 21 20 20 21 21 22 23 25 26 26 25 25 25 26 26 25 25 24 24 24 24 23 24 25 25 25 24 24 25 25 24 23 23 23 22 22 22 23 23 22 23 24
18 18 18 19 18 18 17 19 19 19 20 20 20 22 23 24 25 24 23 22 22 23 24 24 23 22 23 23 22 23 24 24 24 24 24 24 25 23 22 22 22 21 21 21 21 22 23 23 23
17 17 18 19 18 16 16 17 18 18 18 19 19 20 21 22 21 21 20 21 21 21 22 22 22 21 21 21 21 22 22 23 23 23 23 23 23 23 23 22 22 21 21 21 21 21 22 23 24
17 16 16 17 17 17 17 16 16 16 17 18 19 20 20 20 19 18 18 18 18 18 19 20 21 20 19 19 19 20 21 21 22 21 21 21 22 23 22 22 22 22 21 22 23 22 22 23 25
17 16 15 16 16 16 15 15 15 15 16 17 18 19 20 19 18 18 18 17 17 17 18 18 19 19 18 18 18 18 19 19 20 21 21 20 20 21 21 20 21 21 20 21 23 23 23 23 24
17 16 16 16 16 17 15 14 14 15 16 17 18 19 18 18 18 18 18 17 17 17 17 18 18 18 18 18 18 18 18 18 19 20 20 20 20 20 20 20 20 21 21 21 22 22 23 23 24
17 17 16 16 16 16 16 14 14 15 16 17 18 18 17 18 18 18 18 18 18 18 18 18 17 18 18 18 18 18 18 18 18 19 20 19 20 20 19 19 20 21 22 22 22 22 23 23 24
Wind_Direction
252 249 247 245 241 236 229 227 228 228 230 234 238 244 253 261 281 298 310 313 307 301 296 287 273 267 257 251 245 237 222 219 225 239 255 269 279 286 296 308 316 321 326 330 330 331 332 332 330
251 248 245 242 238 230 223 223 223 226 230 235 236 241 251 265 277 296 307 302 299 296 290 278 265 260 252 245 241 235 230 232 238 245 254 262 268 275 280 291 301 308 315 321 324 325 326 326 324
249 247 244 241 234 224 219 220 222 225 229 233 234 237 244 256 268 289 305 306 298 289 280 269 259 256 252 247 243 241 240 244 248 250 254 258 263 269 275 283 290 299 305 311 315 317 318 318 314
248 246 243 238 224 214 216 220 222 226 231 235 236 238 240 246 259 278 297 303 297 289 281 268 257 251 250 247 246 245 246 249 254 256 256 256 260 264 270 277 283 290 295 300 304 307 308 306 302
246 245 241 233 214 209 214 222 225 228 233 236 239 243 244 251 263 276 290 299 296 290 283 272 262 253 251 250 246 244 247 252 255 258 258 258 259 261 267 272 276 280 285 288 292 295 297 295 291
244 242 238 226 208 207 214 222 227 230 233 239 241 247 250 254 263 272 286 294 292 287 282 272 264 257 255 254 249 245 247 252 256 257 258 258 258 260 263 268 271 275 278 281 283 286 287 284 282
244 240 233 221 207 207 214 221 226 230 233 238 241 244 248 254 261 272 286 291 288 286 281 273 264 258 256 256 252 250 250 252 254 255 257 259 260 261 263 266 269 272 275 277 278 278 279 277 274
243 239 230 218 209 210 215 221 227 231 233 237 240 243 248 254 261 273 283 288 290 286 279 274 269 264 260 255 252 252 251 251 253 255 258 259 261 263 264 265 267 269 272 274 274 273 272 271 270
241 235 223 213 210 211 215 221 228 233 234 237 241 246 249 255 263 273 281 287 290 288 284 276 277 268 263 258 255 256 254 252 254 258 258 260 260 261 263 265 265 266 268 269 271 271 269 266 264
237 229 216 212 211 213 217 222 229 234 237 240 244 247 251 256 263 272 280 284 287 286 283 278 274 269 265 264 263 260 259 255 256 257 259 259 260 261 261 263 264 263 264 266 266 266 265 262 260
228 222 217 214 214 216 219 224 231 236 241 245 248 251 254 257 263 270 276 281 285 284 281 278 273 269 265 263 263 261 259 259 258 257 258 259 260 261 262 261 263 262 261 262 262 261 260 259 257
225 221 219 218 219 220 222 226 232 238 245 250 252 253 255 258 263 269 274 279 283 283 281 277 273 270 267 263 261 259 256 256 256 257 256 258 260 261 262 261 261 261 260 260 260 258 259 258 255
227 226 224 223 224 224 226 230 235 240 246 252 255 255 256 259 263 268 273 278 281 282 280 278 274 269 269 267 264 258 257 255 256 257 257 259 260 261 261 261 260 260 260 259 258 257 256 256 255
229 230 229 227 228 229 230 233 237 241 247 253 257 258 260 262 266 270 274 277 278 279 278 276 275 273 271 272 264 261 258 255 257 260 261 259 260 261 260 260 260 260 259 259 259 257 256 254 253
226 226 228 230 232 234 235 236 239 244 249 254 257 260 262 264 268 270 273 275 276 276 277 277 277 274 274 273 269 262 261 261 261 259 258 259 261 263 261 259 259 258 258 259 259 257 254 254 252
220 219 223 227 230 235 237 239 242 246 251 253 256 259 263 266 269 271 273 274 275 276 276 276 277 276 274 271 265 260 260 260 261 261 260 260 260 261 262 259 258 257 256 257 257 257 252 250 247
215 216 219 221 226 231 235 237 240 244 248 251 254 258 262 266 270 272 273 273 275 276 275 275 276 277 274 270 265 262 259 258 258 261 261 262 259 259 261 261 259 256 255 255 255 253 252 249 244
215 215 216 221 228 233 237 239 241 246 250 253 257 262 264 268 272 274 276 276 277 277 276 275 275 277 277 273 267 262 259 260 259 261 261 262 261 259 259 259 260 259 255 254 253 252 249 246 244
218 217 216 222 232 237 240 243 246 251 255 258 261 265 269 274 276 276 279 277 277 278 276 276 276 277 277 277 271 266 260 262 262 262 262 263 262 262 259 258 259 256 254 252 250 248 245 243 243
221 218 220 226 237 241 243 248 253 256 261 265 268 271 275 279 280 279 278 278 277 277 275 276 278 280 281 278 274 269 264 264 263 261 261 264 263 261 258 256 252 252 250 250 249 244 242 243 241
225 224 225 231 240 247 251 255 262 265 268 273 276 277 279 281 281 280 279 277 277 275 274 276 277 279 281 279 277 274 267 266 265 260 259 262 261 260 258 254 251 253 253 249 246 239 236 239 239
227 229 232 237 245 251 258 264 269 274 277 279 279 281 282 282 282 281 279 277 275 275 275 275 276 277 278 279 276 274 271 266 264 261 258 258 258 260 255 254 254 250 248 247 243 238 238 238 239
232 238 240 243 249 256 264 271 275 279 282 282 283 282 284 284 283 281 281 279 276 275 275 275 274 275 277 278 274 271 267 264 263 260 257 255 255 254 250 250 252 249 245 241 241 239 238 236 238
239 243 246 250 257 261 269 275 279 280 284 287 287 285 286 286 285 282 281 280 277 275 273 274 273 274 277 278 275 269 265 262 261 259 254 252 252 251 249 249 247 245 242 238 238 237 236 236 239
245 251 254 259 263 267 271 278 283 285 285 289 291 290 291 288 285 282 280 280 279 274 271 273 273 273 276 277 276 270 264 262 262 259 255 252 250 249 249 247 244 244 244 241 237 237 238 239 242
248 257 262 266 266 270 274 282 286 289 288 290 292 294 296 294 288 282 278 279 278 275 273 272 273 274 274 275 274 273 266 262 261 258 257 255 250 250 247 243 242 245 247 244 241 242 243 242 243
252 259 264 268 271 274 279 286 288 291 292 290 293 296 297 296 291 287 284 282 280 277 275 272 271 272 273 273 273 272 266 262 259 257 258 256 250 246 243 241 241 243 245 244 244 245 247 247 246
254 263 268 273 277 279 284 289 292 288 289 292 295 296 296 296 292 289 288 284 282 281 277 275 272 271 272 271 270 269 266 262 258 256 255 254 249 245 242 242 242 243 245 247 248 249 250 248 247
257 264 270 276 282 288 291 295 295 293 293 293 295 298 297 296 293 292 289 285 282 280 277 275 274 271 271 271 269 267 264 262 260 257 256 252 248 247 244 243 244 247 250 250 249 250 251 251 250
260 264 272 278 284 290 295 302 297 298 297 296 297 298 296 295 292 291 288 285 281 279 277 276 274 269 269 270 269 265 262 260 257 255 254 252 250 250 248 246 248 249 249 249 250 250 250 251 251
Height
5858 5859 5861 5863 5866 5867 5867 5868 5868 5869 5869 5870 5872 5873 5875 5877 5879 5882 5882 5880 5880 5880 5881 5881 5882 5883 5883 5884 5885 5886 5887 5888 5890 5891 5892 5894 5895 5896 5897 5897 5898 5898 5898 5898 5898 5898 5897 5897 5897
5854 5856 5858 5860 5862 5864 5865 5865 5865 5866 5867 5868 5870 5871 5873 5874 5876 5878 5878 5879 5879 5879 5879 5880 5881 5882 5882 5883 5883 5884 5885 5887 5888 5890 5891 5892 5893 5894 5895 5895 5896 5896 5897 5897 5897 5897 5897 5897 5896
5850 5852 5855 5858 5860 5862 5862 5862 5862 5863 5864 5866 5868 5869 5871 5873 5874 5875 5876 5877 5877 5877 5878 5878 5879 5880 5881 5881 5882 5883 5883 5885 5886 5887 5889 5890 5891 5892 5893 5893 5894 5895 5895 5895 5896 5896 5896 5896 5896
5847 5849 5852 5855 5857 5858 5859 5859 5859 5860 5862 5863 5865 5867 5868 5871 5872 5873 5874 5875 5875 5876 5876 5877 5877 5878 5878 5879 5880 5881 5882 5883 5884 5885 5886 5887 5888 5889 5890 5891 5892 5892 5893 5893 5894 5894 5894 5895 5895
5843 5845 5848 5851 5854 5854 5855 5855 5855 5857 5859 5861 5863 5865 5866 5868 5869 5871 5872 5873 5873 5874 5874 5875 5875 5876 5876 5877 5878 5878 5879 5880 5881 5882 5883 5884 5885 5887 5888 5888 5889 5890 5891 5891 5892 5892 5893 5893 5894
5839 5842 5845 5848 5850 5850 5850 5851 5852 5854 5856 5858 5861 5863 5864 5866 5867 5868 5869 5870 5871 5871 5872 5873 5873 5873 5874 5875 5875 5876 5877 5878 5879 5880 5881 5882 5883 5884 5885 5885 5887 5887 5888 5889 5890 5890 5891 5892 5892
5836 5838 5841 5843 5845 5846 5847 5847 5849 5851 5853 5856 5858 5861 5862 5863 5864 5865 5866 5867 5868 5869 5870 5870 5871 5871 5871 5872 5873 5873 5874 5875 5876 5877 5878 5879 5880 5881 5882 5883 5883 5884 5885 5886 5887 5888 5889 5889 5890
5832 5835 5837 5839 5841 5842 5843 5844 5846 5848 5850 5853 5855 5858 5859 5860 5861 5862 5863 5864 5865 5866 5866 5867 5868 5868 5869 5869 5870 5870 5871 5872 5873 5874 5875 5876 5877 5878 5879 5880 5880 5881 5882 5883 5884 5885 5886 5887 5888
5828 5832 5833 5835 5836 5838 5839 5840 5842 5844 5847 5849 5851 5854 5855 5856 5858 5859 5860 5861 5862 5862 5863 5863 5864 5865 5865 5865 5866 5867 5868 5869 5870 5871 5872 5873 5874 5875 5876 5877 5877 5878 5879 5879 5880 5882 5883 5884 5885
5825 5828 5829 5830 5832 5834 5835 5837 5839 5841 5844 5845 5848 5849 5851 5853 5854 5856 5856 5857 5858 5859 5859 5860 5861 5861 5861 5862 5863 5863 5864 5865 5866 5867 5868 5869 5870 5871 5872 5873 5874 5874 5875 5876 5877 5878 5879 5881 5882
5821 5823 5824 5826 5827 5830 5832 5834 5836 5838 5840 5842 5844 5846 5848 5849 5851 5852 5853 5853 5854 5854 5855 5855 5856 5857 5857 5857 5858 5859 5860 5860 5861 5862 5863 5864 5865 5867 5868 5869 5870 5871 5871 5872 5873 5874 5876 5877 5878
5817 5819 5821 5823 5824 5827 5829 5832 5834 5836 5838 5839 5841 5842 5844 5846 5847 5848 5848 5849 5850 5850 5851 5851 5851 5852 5852 5852 5853 5854 5854 5855 5856 5857 5858 5859 5861 5862 5864 5865 5866 5866 5867 5868 5869 5870 5872 5873 5874
5814 5816 5818 5820 5822 5825 5827 5829 5831 5833 5835 5836 5837 5839 5840 5841 5843 5844 5844 5845 5846 5846 5846 5846 5846 5846 5846 5847 5848 5848 5849 5850 5850 5851 5853 5854 5856 5857 5858 5860 5861 5862 5862 5863 5864 5866 5867 5869 5870
5812 5814 5816 5818 5820 5822 5824 5826 5829 5830 5831 5832 5834 5835 5836 5837 5838 5839 5840 5840 5841 5841 5841 5841 5841 5841 5842 5842 5841 5842 5843 5843 5844 5846 5847 5848 5850 5851 5852 5854 5855 5856 5857 5858 5860 5861 5863 5864 5866
5809 5812 5814 5815 5816 5818 5821 5824 5825 5826 5827 5828 5829 5830 5831 5832 5833 5834 5835 5835 5835 5835 5835 5835 5835 5836 5836 5836 5836 5836 5836 5838 5839 5840 5840 5842 5843 5845 5846 5848 5849 5850 5851 5853 5854 5856 5857 5859 5861
5806 5808 5810 5811 5813 5814 5818 5820 5821 5822 5823 5824 5825 5825 5826 5827 5827 5828 5829 5830 5830 5830 5830 5829 5829 5829 5830 5830 5830 5830 5830 5831 5832 5833 5834 5835 5837 5838 5839 5841 5842 5844 5845 5847 5848 5850 5852 5853 5855
5803 5805 5806 5808 5809 5811 5813 5816 5817 5818 5819 5820 5820 5821 5822 5822 5822 5823 5823 5824 5824 5824 5824 5824 5823 5823 5823 5823 5823 5823 5823 5824 5825 5827 5828 5829 5830 5831 5832 5834 5835 5836 5838 5840 5842 5843 5845 5847 5849
5800 5802 5804 5805 5806 5808 5810 5812 5813 5814 5815 5816 5816 5817 5817 5818 5818 5818 5818 5818 5818 5818 5818 5818 5818 5817 5818 5817 5816 5816 5817 5818 5819 5820 5821 5822 5823 5824 5826 5827 5829 5829 5831 5833 5835 5836 5838 5840 5843
5797 5799 5802 5803 5803 5805 5807 5809 5810 5811 5811 5812 5812 5812 5813 5813 5813 5812 5812 5812 5812 5812 5811 5811 5811 5812 5811 5811 5810 5810 5810 5811 5812 5813 5814 5815 5817 5818 5818 5820 5822 5822 5824 5825 5827 5829 5832 5834 5836
5795 5797 5799 5800 5801 5803 5804 5805 5806 5807 5807 5807 5807 5807 5807 5807 5807 5807 5807 5806 5806 5806 5805 5805 5805 5805 5805 5805 5804 5803 5804 5804 5805 5806 5807 5808 5810 5811 5811 5813 5814 5816 5817 5818 5820 5823 5825 5828 5830
5793 5796 5797 5798 5798 5799 5801 5802 5803 5802 5802 5802 5802 5802 5802 5802 5802 5801 5800 5800 5799 5799 5799 5799 5799 5799 5799 5798 5797 5797 5798 5798 5798 5799 5800 5801 5802 5803 5805 5806 5807 5808 5810 5812 5814 5816 5819 5821 5824
5791 5793 5794 5795 5796 5796 5798 5798 5798 5798 5798 5797 5797 5797 5797 5796 5795 5794 5794 5792 5792 5792 5792 5792 5792 5792 5792 5791 5791 5791 5791 5792 5792 5793 5794 5794 5795 5795 5797 5799 5801 5802 5804 5806 5808 5810 5812 5815 5817
5789 5790 5791 5792 5793 5793 5793 5793 5795 5794 5793 5793 5792 5791 5791 5790 5789 5788 5786 5786 5785 5785 5785 5785 5786 5786 5785 5785 5784 5784 5784 5785 5785 5786 5787 5788 5789 5790 5792 5794 5795 5797 5798 5800 5802 5804 5807 5809 5812
5786 5787 5788 5789 5789 5790 5790 5790 5790 5790 5789 5788 5787 5786 5785 5783 5782 5781 5780 5779 5778 5778 5778 5779 5779 5779 5779 5778 5777 5777 5777 5778 5778 5779 5780 5782 5784 5785 5786 5788 5790 5792 5793 5795 5797 5799 5801 5803 5805
5784 5785 5786 5786 5786 5787 5786 5785 5786 5785 5784 5783 5782 5781 5779 5777 5776 5774 5773 5772 5772 5771 5771 5772 5772 5772 5772 5771 5771 5771 5771 5772 5772 5773 5774 5776 5777 5779 5780 5782 5784 5785 5787 5790 5791 5793 5795 5797 5799
5781 5782 5783 5783 5783 5783 5782 5782 5783 5781 5779 5778 5777 5776 5774 5771 5769 5768 5767 5767 5766 5766 5766 5766 5766 5766 5766 5765 5765 5765 5765 5766 5766 5767 5769 5770 5771 5773 5774 5775 5778 5780 5782 5784 5786 5787 5789 5791 5793
5778 5778 5779 5779 5779 5779 5779 5779 5779 5777 5775 5774 5773 5771 5769 5767 5765 5763 5762 5762 5761 5760 5760 5760 5760 5760 5760 5760 5759 5759 5759 5760 5761 5762 5763 5764 5766 5767 5769 5770 5772 5774 5776 5778 5780 5782 5783 5785 5787
5775 5776 5776 5775 5775 5775 5775 5775 5775 5773 5771 5770 5768 5766 5764 5762 5760 5759 5758 5757 5756 5755 5755 5755 5755 5755 5754 5754 5754 5754 5754 5755 5756 5757 5758 5759 5760 5762 5764 5765 5767 5769 5771 5773 5775 5776 5778 5779 5780
5773 5773 5772 5772 5772 5771 5771 5774 5771 5769 5767 5765 5764 5762 5760 5758 5756 5755 5754 5752 5751 5751 5750 5750 5750 5750 5749 5749 5749 5749 5750 5750 5751 5752 5753 5754 5755 5757 5758 5760 5761 5763 5765 5767 5768 5770 5772 5773 5774
5769 5769 5769 5770 5769 5768 5767 5771 5766 5765 5763 5761 5759 5757 5755 5754 5752 5751 5749 5748 5747 5746 5745 5744 5744 5744 5744 5744 5744 5744 5745 5745 5746 5747 5748 5749 5750 5752 5753 5755 5756 5758 5759 5761 5762 5764 5765 5766 5767